Location: Moscow
(55.7500°N, 37.5830°E)
Time: 21:41:15
(UTC+03:00)

N. Korean satellite - Pass Details

Date: 25 February 2021
Orbit: 452 x 499 km, 97.2° (Epoch: 20 April)

Event Time Altitude Azimuth Distance (km) Brightness Sun altitude
Rises 06:19:38 0° 13° (NNE) 2,497 10.3 -10.7°
Reaches altitude 10° 06:21:41 10° 12° (NNE) 1,623 9.4 -10.4°
Maximum altitude 06:25:10 78° 286° (WNW) 485 6.4 -9.9°
Drops below altitude 10° 06:28:40 10° 201° (SSW) 1,633 9.1 -9.4°
Sets 06:30:43 0° 199° (SSW) 2,515 10.0 -9.1°
